Regional Weather Roundup
Issued by NWS

Home | Current Version | Previous Version | Text Only | Print | Product List | Glossary Off
Versions: 1 2 3 4 5 6 7 8 9 10 11 12 13 14 15 16 17 18 19 20 21 22 23 24 25 26 27 28 29 30 31 32 33 34 35 36 37 38 39 40 41 42 43 44 45 46 47 48 49 50

000
ASUS43 KLOT 291008
RWRIL

ILLINOIS REGIONAL WEATHER ROUNDUP
NATIONAL WEATHER SERVICE CHICAGO/ROMEOVILLE IL
500 AM CDT FRI APR 29 2016

NOTE: "FAIR" INDICATES FEW OR NO CLOUDS BELOW 12,000 FEET WITH NO
SIGNIFICANT WEATHER AND/OR OBSTRUCTIONS TO VISIBILITY.

* THESE STATIONS ARE NOT UNDER NWS QUALITY CONTROL. THEY ALSO MAY NOT
  REPORT WEATHER SUCH AS PRECIPITATION OR FOG.

ILZ001-002-007-009-015-016-024-291100-
NORTHWEST ILLINOIS

CITY           SKY/WX    TMP DP  RH WIND       PRES   REMARKS
MOLINE         CLOUDY    46  42  86 N6        30.09R FOG
STERLING*      CLOUDY    43  41  93 N6        30.08R
SAVANNA*       CLOUDY    42  40  93 N3        30.09R
$$

ILZ003-004-008-010-011-017-018-291100-
NORTH CENTRAL ILLINOIS

CITY           SKY/WX    TMP DP  RH WIND       PRES   REMARKS
ROCKFORD       CLOUDY    42  39  89 N7        30.07S
FREEPORT*      CLOUDY    40  38  95 N6        30.08S FOG
ROCHELLE*      CLOUDY    41  40  96 N8        30.06R FOG
DE KALB*       CLOUDY    41  40  96 N9        30.04S FOG
$$

ILZ005-006-012>014-019>023-291100-
NORTHEAST ILLINOIS

CITY           SKY/WX    TMP DP  RH WIND       PRES   REMARKS
CHICAGO-OHARE  CLOUDY    42  41  96 N10       30.02S
CHICAGO-MIDWAY CLOUDY    45  41  86 NW6       30.02S FOG
AURORA         CLOUDY    43  41  93 NW7       30.04R FOG
LANSING*       CLOUDY    45  43  93 N5        30.02R FOG
JOLIET*        CLOUDY    46  44  92 NW3       30.04R FOG
WAUKEGAN       CLOUDY    40  39  97 N6        30.04R
DUPAGE AIRPORT CLOUDY    43  39  86 N10       30.02S
KANKAKEE*      CLOUDY    46  43  88 CALM      30.04R FOG
WHEELING       CLOUDY    42  41  96 N9        30.04S
MORRIS*        CLOUDY    45  42  91 CALM      30.04R FOG
ROMEOVILLE*    CLOUDY    44  41  91 N7        30.03R FOG
NORTHERLY ISL    N/A     44  41  89 N8          N/A
NORTHERLY ISL    N/A     44  41  89 N8          N/A
$$

LMZ740>746-291100-
SOUTHERN LAKE MICHIGAN

STATION/POSITION SKY/WX   TEMP    WIND        PRES    VSBY  WAVE
                          AIR SEA DIR/SP/G                  HT/PER
                          (F)     (DEG/KT/KT) (MB)    (MI)  (FT/S)
SOUTHERN BUOY              40 40   40/ 10/ 10 1017.1R         1/ 3
HARRISON CRIB              43     340/ 18/ 19   N/A
BURNHAM HARBOR             44     320/  7/ 10   N/A
CALUMET HARBOR             44     320/  5/  9 1015.6R
BURNS HARBOR               43     320/  7/ 11 1016.9R
MICHIGAN CITY              43     240/  7/  8   N/A
ST. JOSEPH                 46 47  250/  6/  8   N/A           1/ 4
$$

ILZ025>027-034>036-040-047-049-050-058-095>099-291100-
WEST-CENTRAL ILLINOIS

CITY           SKY/WX    TMP DP  RH WIND       PRES   REMARKS
QUINCY         MOCLDY    49  46  90 NW8       30.07R
GALESBURG*     CLOUDY    47  46  97 N9        30.08R FOG
MACOMB*        CLOUDY    49  48  97 NW8       30.08R
JACKSONVILLE*  CLEAR     47  45  91 W7        30.07R
PITTSFIELD*    CLOUDY    50  47  89 NW6       30.08R
$$

ILZ028>032-037-038-041>044-048-051>054-059>061-291100-
CENTRAL ILLINOIS

CITY           SKY/WX    TMP DP  RH WIND       PRES   REMARKS
PONTIAC        CLOUDY    48  48  99 NW3       30.05R FOG
BLOOMINGTON    CLEAR     48  48 100 W5        30.04S
DECATUR        CLEAR     50  46  86 W5        30.05R
PEORIA         CLOUDY    51  48  89 N5        30.05R
LACON*         CLOUDY    47  45  93 N3        30.05S FOG
LINCOLN*       PTCLDY    52  49  90 CALM      30.04R
SPRINGFIELD    MOCLDY    50  47  89 W6        30.06R
TAYLORVILLE    CLOUDY    46  46 100 CALM      30.06R
$$

ILZ033-039-045-046-055>057-062-063-291100-
EAST-CENTRAL ILLINOIS

CITY           SKY/WX    TMP DP  RH WIND       PRES   REMARKS
CHAMPAIGN      CLEAR     47  45  93 CALM      30.02S
RANTOUL*       CLEAR     49  48  97 CALM      30.02F
PARIS*         CLEAR     47  46  98 CALM      30.04S
$$

ILZ079-100>102-291100-
SOUTHWEST ILLINOIS

CITY           SKY/WX    TMP DP  RH WIND       PRES   REMARKS
ALTON          PTCLDY    49  48  94 CALM      30.07S
CAHOKIA*       CLOUDY    53  50  89 VRB3      30.06S
SPARTA*        CLOUDY    53  51  93 CALM      30.06S
$$

ILZ064>066-069>071-074>076-080>082-084>086-088>090-092>094-291100-
SOUTH-CENTRAL ILLINOIS

CITY           SKY/WX    TMP DP  RH WIND       PRES   REMARKS
CARBONDALE     CLOUDY    51  49  92 CALM      30.05R
CAIRO*         MOCLDY    56  52  85 NE7       30.03S
EFFINGHAM*     CLOUDY    49  49 100 CALM      30.06R
MARION         CLOUDY    52  52 100 CALM      30.06R
MT. VERNON     CLEAR     48  43  81 CALM      30.06R
CENTRALIA*     PTCLDY    51  51  99 CALM      30.06R
SALEM*         MOCLDY    53  50  89 CALM      30.06R
METROPOLIS*    MOCLDY    56  54  91 CALM      30.04S
$$

ILZ067-068-072-073-078-083-087-091-291100-
SOUTHEAST ILLINOIS

CITY           SKY/WX    TMP DP  RH WIND       PRES   REMARKS
LAWRENCEVILLE  CLOUDY    53  50  89 W3        30.05R
FLORA*         CLOUDY    53  50  90 CALM      30.05R
FAIRFIELD*     CLOUDY    51  50  97 CALM      30.05R
HARRISBURG*    CLOUDY    53  51  94 CALM      30.05S
ROBINSON*      CLOUDY    47  47  99 CALM      30.05S
CARMI*         PTCLDY    52  52  99 CALM      30.05R
$$

ABBREVIATIONS USED IN REMARKS
   TC - TEMPERATURE IN CELSIUS
  WCI - WIND CHILL INDEX
   HX - HEAT INDEX
  VSB - VISIBILITY
$$





USA.gov is the U.S. government's official web portal to all federal, state and local government web resources and services.